Location: Bouysse
(45.3674°N, 1.8947°E)
Time: 18:07:59
(UTC+00:00)

Spot 4 Rocket - Pass Details

Date: 07 June 2020
Orbit: 776 x 782 km, 98.7° (Epoch: 10 July)

Event Time Altitude Azimuth Distance (km) Brightness Sun altitude
Rises 03:24:21 0° 10° (N) 3,268 8.2 -6.4°
Reaches altitude 10° 03:26:41 10° 7° (N) 2,336 7.3 -6.1°
Maximum altitude 03:31:44 60° 289° (WNW) 892 4.2 -5.4°
Drops below altitude 10° 03:36:46 10° 211° (SSW) 2,319 5.9 -4.8°
Enters shadow 03:38:21 - 208° (SSW) 2,949 6.4 -4.6°
